Voltar ao catálogo

STARLINK-35275

AtivoComunicaçõesVLEO
NORAD 65756·PAYLOAD·🇺🇸 United States

Lançado Sep 25, 2025 de Cape Canaveral Space Force Station

Loading…

Próximas Passagens (próximas 24 horas)

TLE

AtualizadoSource: CelesTrak SupGP

Época: Sep 14, 2026, 21:43 UTC

1 65756C 25216Y   26257.90534722 -.00019630  00000+0 -57976-3 0  2573
2 65756  53.1566 172.0500 0001289  91.6795 168.7160 15.34412071    17

Acompanhe STARLINK-35275 em tempo real com AllMySat

Download on the App Store